Tracking 19176 objects as of 26-May-2018
HD Live streaming from Space Station
objects crossing your sky now

NADEZHDA 6

Track NADEZHDA 6 now!
10-day predictions
NADEZHDA 6 is classified as:


NORAD ID: 26384
Int'l Code: 2000-033A
Perigee: 668.3 km
Apogee: 691.0 km
Inclination: 98.0 °
Period: 98.2 minutes
Semi major axis: 7050 km
RCS: 1.836 m2 (large)
Launch date: June 28, 2000
Source: Commonwealth of Independent States (former USSR) (CIS)
Launch site: PLESETSK MISSILE AND SPACE COMPLEX (PKMTR)

Search and rescue; part of COSPAS/SARSAT fleet.
aabbcc
Your satellite tracking list
Your tracking list is empty




NASA's NSSDC Master Catalog

Two Line Element Set (TLE):
1 26384U 00033A   18146.05600525  .00000061  00000-0  19612-4 0  9992
2 26384  97.9685 208.0649 0016096  29.2564 330.9525 14.66429044957051
Source of the keplerian elements: AFSPC